Regional Weather Roundup
Issued by NWS

Home | Current Version | Previous Version | Graphics & Text | Print | Product List | Glossary On
Versions: 1 2 3 4 5 6 7 8 9 10 11 12 13 14 15 16 17 18 19 20 21 22 23 24 25 26 27 28 29 30 31 32 33 34 35 36 37 38 39 40 41 42 43 44 45 46 47 48 49 50
000
ASUS43 KIND 210509
RWRIN

WEATHER ROUNDUP FOR INDIANA
NATIONAL WEATHER SERVICE INDIANAPOLIS IN
100 AM EDT MON AUG 21 2017

NOTE: "FAIR" INDICATES FEW OR NO CLOUDS BELOW 12,000 FEET WITH NO
SIGNIFICANT WEATHER AND/OR OBSTRUCTIONS TO VISIBILITY.

* - STATION DOES NOT REPORT WEATHER SUCH AS PRECIPITATION OR FOG.

+ - STATION NOT QUALITY CONTROLLED BY THE NATIONAL WEATHER SERVICE.
    USE DATA WITH CAUTION...ESPECIALLY DEWPOINT AND RELATIVE
    HUMIDITY OBSERVATIONS.

INZ001>003-010>013-019-020-210600-
NORTHWEST INDIANA

CITY           SKY/WX    TMP DP  RH WIND       PRES   REMARKS
GARY /AIRPORT/ CLOUDY    78  67  69 S5        30.05R
KNOX *+        CLOUDY    72  68  88 SE3       30.07R
LA PORTE +     CLOUDY    71  68  92 SE3       30.08R
MICHIGAN CITY+ CLOUDY    77  63  61 S5        30.06R
MONTICELLO +   CLOUDY    75  67  77 SE3       30.05S
RENSSELAER +   TSTM      73  64  73 SW16      30.10R
VALPARAISO     CLOUDY    74  70  87 CALM      30.07R

$$

LMZ046-743>745-210600-
SOUTHERN LAKE MICHIGAN

STATION/POSITION TIME  TEMP    WIND        PRES    WAVE
                       AIR SEA DIR/SP/G            HT
                 (UTC) (F)     (DEG/KT/KT) (MB)    (FT)
BURNS HARBOR     0440   81     160/  8/ 13 1017.6R
MICHIGAN CITY    0440   79     150/  8/ 11   N/A
5NW MICH CITY    0500   78 75  170/ 10/ 10   N/A     1

$$

INZ004-005-014>016-021>024-210600-
NORTH CENTRAL INDIANA

CITY           SKY/WX    TMP DP  RH WIND       PRES   REMARKS
GOSHEN         CLOUDY    73  67  81 S3        30.08S
LOGANSPORT +   CLOUDY    70  64  83 SE5       30.08S
PERU/GRISSOM   MOCLDY    73  65  77 SE3       30.08R
ROCHESTER +    CLOUDY    77  66  69 SE6       30.08R
SOUTH BEND     CLOUDY    77  67  71 SE5       30.07S
WARSAW +       CLOUDY    70  68  94 CALM      30.08S

$$

INZ006>009-017-018-025>027-210600-
NORTHEAST INDIANA

CITY           SKY/WX    TMP DP  RH WIND       PRES   REMARKS
AUBURN +       PTCLDY    66  64  94 CALM      30.11R FOG
FORT WAYNE     MOCLDY    69  64  84 CALM      30.10S
HUNTINGTON +   PTCLDY    68  67  96 CALM      30.10R

$$

INZ028-029-035-036-043>045-051>053-210600-
WEST CENTRAL INDIANA

CITY           SKY/WX    TMP DP  RH WIND       PRES   REMARKS
GREENCASTLE +  CLEAR     70  68  94 CALM      30.10R
LAFAYETTE      MOCLDY    74  68  81 SE5       30.05S
TERRE HAUTE    CLEAR     72  69  90 CALM      30.07S

$$

INZ030>032-037>040-046>048-054>057-064-065-210600-
CENTRAL INDIANA

CITY           SKY/WX    TMP DP  RH WIND       PRES   REMARKS
CP ATTERBURY + CLEAR     70  68  94 CALM      30.10F
FRANKFORT +    MOCLDY    71  68  89 CALM      30.10S
GREENWOOD *+   CLEAR     75  69  81 S3        30.10S
INDIANAPOLIS   PTCLDY    75  70  84 SE5       30.09R
-EAGLE CREEK   CLEAR     77  69  76 CALM      30.09R
KOKOMO +       PTCLDY    70  66  87 SE5       30.10R
MARION +       CLEAR     70  64  83 SE6       30.11S
MT COMFORT *+  CLEAR     72  68  88 S6        30.10S
SHELBYVILLE    CLEAR     70  66  87 CALM      30.09S
ZIONSVILLE +   CLEAR     68  65  91 S3        30.11R

$$

INZ033-034-041-042-049-050-058-059-210600-
EAST CENTRAL INDIANA

CITY           SKY/WX    TMP DP  RH WIND       PRES   REMARKS
MUNCIE         CLEAR     72  66  81 SE3       30.11R
RICHMOND +     CLEAR     66  64  94 SE6       30.14S

$$

INZ060-061-067>069-081>083-085>088-210600-
SOUTHWEST INDIANA

CITY           SKY/WX    TMP DP  RH WIND       PRES   REMARKS
EVANSVILLE     PTCLDY    77  69  76 SW6       30.09S
HUNTINGBURG +  CLEAR     76  69  79 S5        30.10S
WASHINGTON +   CLEAR     74  67  78 MISG      30.08S

$$

INZ062-063-066-070>080-084-089>092-210600-
SOUTH CENTRAL AND SOUTHEAST INDIANA

CITY           SKY/WX    TMP DP  RH WIND       PRES   REMARKS
BEDFORD +      CLEAR     72  70  94 S3        30.10R
BLOOMINGTON    CLEAR     74  67  78 S7        30.10S
MADISON *+     CLEAR     72  68  88 CALM      30.14S
NORTH VERNON + CLEAR     68  68 100 CALM      30.12R
SEYMOUR +      CLEAR     72  72 100 CALM      30.10R

$$




USA.gov is the U.S. government's official web portal to all federal, state and local government web resources and services.